Location: Adigbongbo
(8.5500°N, 4.4333°E)
Time: 09:25:59
(UTC+00:00)

Daily predictions for brighter satellites

Satellite Brightness Start Highest point End
(mag) Time Altitude Azimuth Time Altitude Azimuth Time Altitude Azimuth
Genesis I 3.3 18:15:31 10° NNW 18:19:19 76° WSW 18:23:07 10° SSE
OE (NEXTSAT) 4.3 18:16:11 10° SSW 18:19:38 62° SE 18:23:05 10° NE
CZ-2D R/B 3.8 18:17:37 10° SSE 18:21:13 39° ENE 18:24:50 10° N
DELTA 2 R/B (1) 3.9 18:16:18 10° NW 18:21:44 56° NE 18:27:11 10° ESE
Cosmos 1500 3.2 18:19:26 10° N 18:23:11 59° E 18:26:57 10° SSE
Meteor 1-11 Rocket 4.2 18:19:43 10° NNE 18:24:49 38° E 18:29:54 10° SSE
NOAA 11 4.2 18:19:42 10° SSE 18:25:12 79° ENE 18:30:40 10° N
STARLINK-1149 4.3 18:21:36 10° NNW 18:25:27 38° NE 18:29:18 10° ESE
Starlink 7 placeholder 3.6 18:24:47 10° S 18:26:49 21° SE 18:28:44 10° ENE
Cosmos 1943 3.6 18:22:55 10° NNW 18:28:30 68° WSW 18:34:03 10° S
STARLINK-1180 4.1 18:26:29 10° NNW 18:30:25 44° NE 18:34:11 11° SE
GPS 2-14 Rocket1 3.4 18:27:36 10° SW 18:31:29 38° SSE 18:35:22 10° E
FALCON 9 R/B 1.5 18:26:50 10° SW 18:33:38 57° SSE 18:36:25 10° ENE
Cosmos 1536 3.8 18:31:49 10° NNE 18:35:19 28° E 18:38:51 10° SE
STARLINK-1153 3.9 18:31:24 10° NNW 18:35:24 52° NE 18:38:59 13° SE
Cosmos 1624 Rocket 4.0 18:30:11 10° S 18:35:27 87° ESE 18:40:46 10° NNE
MOS 1 Rocket 4.3 18:35:18 10° NE 18:38:28 20° E 18:41:41 10° SSE
Cosmos 2278 Rocket 2.1 18:33:05 10° S 18:38:44 73° ESE 18:44:21 10° NNE
STARLINK-1132 3.7 18:36:18 10° NNW 18:40:23 61° NE 18:43:46 14° SE
Cosmos 405 Rocket 3.3 18:37:24 10° NNW 18:41:14 61° W 18:44:58 10° S
Cosmos 1666 3.1 18:40:58 10° NNE 18:44:31 39° E 18:47:44 12° SSE
STARLINK-1177 3.6 18:41:15 10° NNW 18:45:22 71° NE 18:48:34 16° SE
Intelsat 5-2 Rocket 2.3 18:46:28 10° WSW 18:49:10 56° NNW 18:51:30 11° ENE
STARLINK-1167 3.5 18:46:13 10° NNW 18:50:20 83° NE 18:53:21 18° SE
Ariane Rocket 4.3 18:52:49 18° ESE 18:54:34 21° ENE 18:58:21 10° NNE
Cosmos 371 Rocket 3.9 18:50:17 10° SSE 18:54:38 34° E 18:58:59 10° NE
STARLINK-1168 3.6 18:51:09 10° NW 18:55:17 84° SW 18:58:07 20° SSE
Cosmos 2346 Rocket 4.3 18:51:21 10° S 18:57:24 79° E 19:03:29 10° N
SL-4 R/B 2.5 18:54:48 10° SSW 18:58:49 40° SE 19:03:05 10° NE
STARLINK-1164 3.7 18:56:07 10° NW 19:00:14 72° SW 19:02:53 21° SSE
BREEZE-M DEB (TANK) 1.8 18:56:55 10° SW 19:00:26 67° SE 19:01:36 23° NE
H-2A R/B 2.6 19:01:34 23° ESE 19:03:50 35° ENE 19:08:22 10° NNE
CSL-04 Rocket 3.7 18:58:23 10° SSE 19:03:50 90° WNW 19:09:20 10° NNW
Okean 1-7 2.9 18:59:32 10° S 19:03:50 70° E 19:08:04 10° N
STARLINK-1182 3.9 19:01:08 10° NW 19:05:13 61° SW 19:07:41 22° SSE
SL-24 R/B 4.1 19:01:06 11° SSE 19:05:21 88° ENE 19:10:01 10° N
STARLINK-1163 4.2 19:06:10 10° NW 19:10:11 52° SW 19:12:29 23° SSE
DNEPR-1 R/B 3.8 19:06:25 10° N 19:11:08 51° ENE 19:12:34 35° ESE
YAOGAN 1 3.9 19:08:33 10° S 19:12:33 38° W 19:16:34 10° NNW
Cosmos 1072 Rocket 4.4 19:08:09 10° N 19:14:26 78° E 19:20:17 12° S
STARLINK-1172 4.5 19:11:13 10° NW 19:15:09 45° SW 19:17:16 24° S
Cosmos 1464 Rocket 4.0 19:09:03 10° N 19:15:24 72° E 19:20:50 14° S
SWIFT 4.0 19:12:16 10° WNW 19:16:02 30° NNW 19:19:30 12° NE
ASC 2 Rocket 3.5 19:16:42 10° WSW 19:21:16 84° NNW 19:26:03 18° ENE
NOSS 2-2 (D) 3.2 19:17:55 10° SSW 19:22:21 64° ESE 19:26:00 10° NNE
GPS 2-18 Rocket1 4.4 19:18:57 10° NW 19:22:34 32° NNE 19:23:35 28° NE
Meteor 1-4 Rocket 2.4 19:22:24 35° SSW 19:23:44 80° W 19:27:09 10° N
H-2A ROCKET BODY 2.2 19:22:33 10° W 19:24:58 45° NNW 19:31:27 10° NE
ARIANE 5 DEB (SYLDA) 4.1 19:21:45 10° W 19:26:28 44° S 19:27:02 40° SSE
Meteor 1-19 Rocket 4.3 19:21:55 10° S 19:27:24 74° W 19:33:01 10° N
CZ-2C R/B 3.6 19:23:51 10° NNE 19:28:26 83° ESE 19:31:58 18° S
Cosmos 2251 Rocket 4.2 19:25:49 10° NNW 19:30:52 52° WSW 19:34:41 17° S
Gbstr 26 Del rocket 4.4 19:27:02 10° NW 19:34:46 72° SW 19:37:54 35° SSE
STARLINK-60 4.0 19:31:57 10° SW 19:34:59 45° NW 19:35:12 44° NW
ARGOS 3.1 19:34:17 49° SE 19:35:36 66° ENE 19:40:55 10° N
Meteor 2-4 Rocket 3.4 19:33:50 30° S 19:36:36 74° E 19:41:56 10° N
NOSS 2-2 (E) 4.2 19:35:32 10° SW 19:39:37 47° WNW 19:43:06 10° N
Cosmos 2297 3.5 19:41:00 40° S 19:43:02 68° ESE 19:48:39 10° NNE
IRS-1A Rocket 4.2 19:42:50 49° SSE 19:44:31 80° ENE 19:50:18 10° N
ARIANE 5 R/B 3.9 19:23:38 10° W 19:45:54 60° S 19:47:13 50° SE
CZ-2C R/B 3.5 19:45:56 33° S 19:48:10 62° W 19:53:35 10° NNW
Cosmos 1452 Rocket 4.3 19:44:45 10° SSW 19:49:50 50° WNW 19:54:56 10° N
Cosmos 332 Rocket 4.1 19:46:47 19° SSW 19:50:18 67° WNW 19:55:09 10° N
Cosmos 1607 4.3 19:45:00 10° NNW 19:51:20 64° WSW 19:53:40 39° S
CZ-2C R/B 3.3 19:48:29 10° N 19:53:56 55° WNW 19:59:19 10° SSW
Hubble Space Telescope 3.3 19:52:52 10° N 19:54:28 13° NNE 19:54:28 13° NNE
Okean 3 4.5 20:00:13 43° NNW 20:00:13 43° NNW 20:03:15 10° N
USA 267 3.2 19:58:37 58° SSE 20:00:01 80° SW 20:06:35 10° NW
ASTEX 1 3.8 19:59:57 52° SW 20:00:33 56° W 20:05:20 10° NNW
Cosmos 1743 4.2 19:57:38 10° NNW 20:00:03 34° NW 20:00:03 34° NW
Cosmos 407 Rocket 3.9 19:56:35 10° N 20:00:48 54° NNE 20:00:48 54° NNE
Cosmos 614 Rocket 4.1 19:57:45 10° NNW 20:02:18 71° NW 20:02:18 71° NW
Meteor 1-13 Rocket 4.4 20:10:50 64° NNW 20:10:50 64° NNW 20:15:34 10° N
Mugunghwa Rocket 4.4 20:06:21 10° WNW 20:14:20 78° SSW 20:15:13 71° SSE
Ariane 3 Deb 3.7 19:52:51 10° W 20:14:38 77° S 20:14:45 77° S
Resurs 01 Rocket 4.4 20:28:14 11° N 20:28:14 11° N 20:28:23 10° N
Centaur AC-42 4.0 20:27:10 10° W 20:32:45 51° S 20:33:03 51° S
Centaur AC-42 4.0 20:27:11 10° W 20:32:46 51° S 20:33:03 51° S
Centaur AC-42 4.0 20:27:10 10° W 20:32:46 51° S 20:33:02 51° S
Ariane H10+ 4.3 19:50:30 10° W 20:35:18 84° S 20:39:16 60° E
Milstar 3 Cent rocket 4.4 20:42:08 10° W 20:49:04 44° NNW 21:03:04 10° NE
